Location: Ay?beleni
(36.6500°N, 30.3000°E)
Time: 08:59:21
(UTC+00:00)

Cosmos 1980 Rocket - Pass Details

Date: 09 April 2020
Orbit: 828 x 850 km, 71.0° (Epoch: 31 May)

Event Time Altitude Azimuth Distance (km) Brightness Sun altitude
Rises 19:58:00 0° 344° (NNW) 3,386 6.2 -37.0°
Reaches altitude 10° 20:00:34 10° 351° (N) 2,452 5.2 -37.3°
Enters shadow 20:02:46 23° 4° (N) 1,716 4.1 -37.6°
